K.P. Christians Land Sermersua

KL  EN  DA
ASIAQ
Weather Now GREENLAND SURVEY
Updated [WGT/WGST] Temperature [°C] Wind [m/s] Air pressure [hPa] Relative humidity [%] Precipitation [mm]
Present Wind chill Speed Max
12.05 18:00-8,1-13,73,4 ⇓n/a97358n/a
12.05 17:00-7,9-12,72,8 ⇓n/a97359n/a
12.05 16:00-7,5-10,71,7 ⇓n/a97358n/a
12.05 15:00-7,10,01,2 ⇘n/a97253n/a
12.05 14:00-7,30,00,8 ⇒n/a97253n/a
12.05 13:00-7,20,00,4 ⇘n/a97247n/a
12.05 12:00-7,50,00,3 ⇘n/a97247n/a
12.05 11:00-8,00,00,4 ⇙n/a97346n/a
12.05 10:00-8,60,00,7 ⇙n/a97349n/a
12.05 09:00-9,4-13,72,2 ⇙n/a97353n/a
12.05 08:00-9,7-15,93,7 ⇙n/a97353n/a
12.05 07:00-10,4-16,73,6 ⇙n/a97354n/a
12.05 06:00-10,9-17,23,6 ⇙n/a97353n/a
12.05 05:00-11,5-17,53,2 ⇙n/a97354n/a
12.05 04:00-11,8-17,93,2 ⇙n/a97354n/a
12.05 03:00-11,8-18,84,1 ⇓n/a97354n/a
12.05 02:00-12,1-19,03,9 ⇓n/a97355n/a
12.05 01:00-12,1-19,34,2 ⇓n/a97354n/a
12.05 00:00-11,6-19,44,9 ⇓n/a97354n/a
11.05 23:00-11,6-18,64,1 ⇓n/a97355n/a
11.05 22:00-11,7-18,33,7 ⇓n/a97356n/a
11.05 21:00-11,7-17,83,2 ⇓n/a97358n/a
11.05 20:00-11,3-17,63,4 ⇓n/a97359n/a
11.05 19:00-10,9-16,12,6 ⇓n/a97360n/a
11.05 18:00-10,4-15,72,8 ⇓n/a97359n/a
Position: (79.9108,-24.0828)

[Back]